Location: Gombori
(14.9797°N, 2.9419°W)
Time: 18:20:19
(UTC+00:00)

Hubble Space Telescope - Pass Details

Date: 29 July 2021
Orbit: 535 x 539 km, 28.5° (Epoch: 21 September)

Event Time Altitude Azimuth Distance (km) Brightness Sun altitude
Rises 19:45:19 0° 308° (NW) 2,666 6.0 -14.9°
Reaches altitude 10° 19:48:49 10° 339° (NNW) 1,775 4.1 -15.7°
Maximum altitude 19:50:33 12° 4° (N) 1,629 3.5 -16.1°
Drops below altitude 10° 19:52:18 10° 29° (NNE) 1,774 3.4 -16.4°
Enters shadow 19:53:55 - 47° (NE) 2,117 3.6 -16.8°
